Hourly Data Report for October 28, 2014

All times are specified in Local Standard Time (LST). Add 1 hour to adjust for Daylight Saving Time where and when it is observed.

MONCTON INTL A
NEW BRUNSWICK

46°06'44.000" N
64°40'43.000" W
70.70 m
8103201
71705
YQM

Download Data

Hourly Data (October 2014)
Hourly Data Report for October 28, 2014
Temp Definition
°C
Dew Point Temp Definition
°C
Rel Hum Definition
%
Wind Dir Definition
10's deg

Wind Spd Definition
km/h
Visibility Definition
km
Stn Press Definition
kPa
Hmdx Definition


Wind Chill Definition


Weather Definition


TIME
00:00 Legend Double Dagger 4.6 1.1 78 30 22 24.1 99.91     LegendNANA
01:00 Legend Double Dagger 4.2 1.2 81 30 20 24.1 99.98     LegendNANA
02:00 Legend Double Dagger 3.8 1.4 84 28 19 24.1 100.09     Clear
03:00 Legend Double Dagger 3.5 1.1 84 27 17 24.1 100.22     LegendNANA
04:00 Legend Double Dagger 3.5 1.1 84 27 19 24.1 100.34     LegendNANA
05:00 Legend Double Dagger 3.9 0.9 81 29 20 24.1 100.44     Cloudy
06:00 Legend Double Dagger 3.8 0.7 80 29 20 24.1 100.54     LegendNANA
07:00 Legend Double Dagger 3.9 0.8 80 32 18 24.1 100.63     LegendNANA
08:00 Legend Double Dagger 4.2 0.9 79 32 22 24.1 100.73     Mostly Cloudy
09:00 Legend Double Dagger 5.1 1.0 75 32 22 24.1 100.79     LegendNANA
10:00 Legend Double Dagger 6.1 1.5 72 30 20 24.1 100.86     LegendNANA
11:00 Legend Double Dagger 7.0 1.9 70 33 15 24.1 100.92     Cloudy
12:00 Legend Double Dagger 7.0 1.7 69 35 10 24.1 100.92     LegendNANA
13:00 Legend Double Dagger 6.8 1.9 71 33 14 24.1 100.96     LegendNANA
14:00 Legend Double Dagger 7.0 2.1 71 35 12 24.1 100.95     Cloudy
15:00 Legend Double Dagger 6.9 1.6 69 33 8 24.1 101.03     LegendNANA
16:00 Legend Double Dagger 6.7 1.8 71 4 5 24.1 101.05     LegendNANA
17:00 Legend Double Dagger 6.1 2.4 77 8 5 24.1 101.04     Mostly Cloudy
18:00 Legend Double Dagger 5.0 1.9 80 3 8 24.1 101.09     LegendNANA
19:00 Legend Double Dagger 3.0 0.9 86 8 11 24.1 101.11     LegendNANA
20:00 Legend Double Dagger 3.9 1.9 87 12 10 24.1 101.12     Mostly Cloudy
21:00 Legend Double Dagger 4.4 2.6 88 12 12 24.1 101.10     LegendNANA
22:00 Legend Double Dagger 3.5 1.7 88 11 10 24.1 101.07     LegendNANA
23:00 Legend Double Dagger 3.8 2.5 91 12 14 24.1 101.06     Mainly Clear

Notes on Data Quality.

Legend

  • E = Estimated
  • M = Missing
  • NA = Not Available
  • ‡ = Partner data that is not subject to review by the National Climate Archives
Date modified: